This is the latest recevied weather packets stored in our database for station/object K7BC. If no packets are shown the sender has not sent any weather packets the latest 1 day(s).
| Time | Temp. | Humidity | Pressure | Rain* | Wind** | Luminosity | Snow |
|---|---|---|---|---|---|---|---|
| 1778019423 | 26.67° C | 30% | 1009.5 hPa | 0 mm | 0.45 m/s, 219° | - | - |
| 1778019303 | 27.22° C | 29% | 1009.3 hPa | 0 mm | 0.45 m/s, 62° | - | - |
| 1778019183 | 27.22° C | 28% | 1009.3 hPa | 0 mm | 0.45 m/s, 47° | - | - |
| 1778019064 | 27.22° C | 29% | 1009.3 hPa | 0 mm | 0.45 m/s, 226° | - | - |
| 1778018944 | 27.22° C | 28% | 1009.3 hPa | 0 mm | 0.89 m/s, 213° | - | - |
| 1778018824 | 27.22° C | 30% | 1009.3 hPa | 0 mm | 0.45 m/s, 279° | - | - |
| 1778018703 | 27.22° C | 30% | 1009.2 hPa | 0 mm | 0 m/s | - | - |
| 1778018583 | 27.22° C | 30% | 1009.2 hPa | 0 mm | 0 m/s | - | - |
| 1778018463 | 27.22° C | 30% | 1009.2 hPa | 0 mm | 0 m/s | - | - |
| 1778018343 | 27.22° C | 28% | 1009.2 hPa | 0 mm | 0.89 m/s, 220° | - | - |
| 1778018222 | 27.22° C | 28% | 1009.3 hPa | 0 mm | 1.34 m/s, 219° | - | - |
| 1778018102 | 27.22° C | 28% | 1009.2 hPa | 0 mm | 0.89 m/s, 185° | - | - |
| 1778017984 | 27.22° C | 29% | 1009.2 hPa | 0 mm | 0.89 m/s, 213° | - | - |
| 1778017864 | 27.22° C | 29% | 1009.2 hPa | 0 mm | 0.45 m/s, 245° | - | - |
| 1778017744 | 27.22° C | 28% | 1009.2 hPa | 0 mm | 0.89 m/s, 306° | - | - |
| 1778017624 | 27.78° C | 30% | 1009.2 hPa | 0 mm | 0.45 m/s, 280° | - | - |
| 1778017504 | 27.78° C | 30% | 1009.1 hPa | 0 mm | 0.45 m/s, 199° | - | - |
| 1778017383 | 27.78° C | 30% | 1009.2 hPa | 0 mm | 0.45 m/s, 5° | - | - |
| 1778017263 | 27.78° C | 29% | 1009.2 hPa | 0 mm | 0.45 m/s, 209° | - | - |
| 1778017143 | 27.78° C | 30% | 1009.2 hPa | 0 mm | 0.45 m/s, 207° | - | - |
| 1778017023 | 27.78° C | 29% | 1009.1 hPa | 0 mm | 0.45 m/s, 224° | - | - |
| 1778016902 | 27.78° C | 30% | 1009.2 hPa | 0 mm | 0 m/s | - | - |
| 1778016782 | 27.78° C | 29% | 1009.1 hPa | 0 mm | 0.45 m/s, 204° | - | - |
| 1778016662 | 27.78° C | 29% | 1009.1 hPa | 0 mm | 0.45 m/s, 218° | - | - |
| 1778016544 | 27.78° C | 28% | 1009.1 hPa | 0 mm | 0.45 m/s, 230° | - | - |
* Rain latest hour (hover to see other rain measurements)
** Current wind speed in m/s (hover to see current wind gust speed)